Flood From: 22-02-2018 06:00 Until: 23-02-2018 06:00 warning for: Flood Level: Yellow info button

Although rather usual in this region, locally or potentially dangerous phenomena are expected. (such as local winds, summer thunderstorms, rising streams or high waves) Be aware and pay attention to the latest weather updates, especially if you carry out activities exposed to weather or close to a stream or shoreline. 


Meteo18 Weather Cam more information Meteo18 Weather Cam


Thunder radar more information blitzortung!


Rain radar more information rain snow radar


Visit our other weather sites:

Template documentation
and downloads

And another site



Weather Underground History page Text

Daily Summary for July 24, 2017 Units:  Metric    English   Both
« Previous Day
Next Day »
Daily Weekly Monthly Yearly Custom
  High: Low: Average:
Temperature: -17.8 °C -10.2 °C -8.9 °C
Dew Point: -17.8 °C -11.3 °C -10.3 °C
Humidity: Humidity % 71 % 85 %
Wind Speed: 0 km/h 0 km/h 14 km/h
Wind Gust: 0 km/h - -
Wind:- - West
Pressure: 0 hPa 34303.6 hPa -
Precipitation: 180.34 mm    
Historical Graphs
 
 
Tabular Data for July 24, 2017
Time Temperature Dew Point Pressure Wind Wind Speed Wind Gust Humidity Rainfall Rate (Hourly)
-17.8 °C -17.8 °C 0 hPa Calm     Humidity % 0 mm
00:02 -8.8 °C -9.4 °C 34347.6 hPa SW 7.7 km/h 18.2 km/h 93 % 20.32 mm
00:12 -8.7 °C -9.3 °C 34347.6 hPa SW 12.9 km/h 18.2 km/h 93 % 20.32 mm
00:17 -8.7 °C -9.3 °C 34347.6 hPa WSW 7.7 km/h 25.9 km/h 93 % 20.32 mm
00:22 -8.7 °C -9.3 °C 34347.6 hPa WSW 7.7 km/h 25.9 km/h 93 % 12.7 mm
00:32 -8.7 °C -9.4 °C 34347.6 hPa SW 20.8 km/h 28.5 km/h 92 % 7.62 mm
00:37 -8.7 °C -9.4 °C 34347.6 hPa WSW 10.3 km/h 28.5 km/h 92 % 7.62 mm
00:42 -8.7 °C -9.4 °C 34347.6 hPa SW 25.9 km/h 36.2 km/h 92 % 0 mm
00:52 -8.7 °C -9.3 °C 34337.4 hPa SW 15.6 km/h 36.2 km/h 93 % 7.62 mm
00:57 -8.7 °C -9.3 °C 34337.4 hPa WSW 15.6 km/h 31.1 km/h 94 % 7.62 mm
01:02 -8.7 °C -9.3 °C 34327.3 hPa SW 25.9 km/h 31.1 km/h 94 % 7.62 mm
01:07 -8.7 °C -9.3 °C 34327.3 hPa SW 28.5 km/h 36.2 km/h 94 % 20.32 mm
01:12 -8.8 °C -9.3 °C 34327.3 hPa SSW 20.8 km/h 36.2 km/h 94 % 20.32 mm
01:17 -8.8 °C -9.3 °C 34327.3 hPa SW 23.3 km/h 41.4 km/h 94 % 50.8 mm
01:22 -8.8 °C -9.3 °C 34327.3 hPa SW 18.2 km/h 41.4 km/h 94 % 50.8 mm
01:27 -8.8 °C -9.3 °C 34313.7 hPa WSW 28.5 km/h 44.1 km/h 94 % 58.42 mm
01:32 -8.8 °C -9.3 °C 34313.7 hPa WSW 12.9 km/h 44.1 km/h 94 % 58.42 mm
01:42 -8.7 °C -9.3 °C 34313.7 hPa SW 25.9 km/h 44.1 km/h 94 % 83.82 mm
01:52 -8.7 °C -9.3 °C 34303.6 hPa SW 28.5 km/h 46.7 km/h 94 % 76.2 mm
01:57 -8.7 °C -9.3 °C 34303.6 hPa SW 20.8 km/h 46.7 km/h 94 % 76.2 mm
02:02 -8.7 °C -9.3 °C 34303.6 hPa SW 18.2 km/h 46.7 km/h 94 % 76.2 mm
02:12 -8.8 °C -9.2 °C 34303.6 hPa West 20.8 km/h 41.4 km/h 95 % 76.2 mm
02:22 -8.7 °C -9.2 °C 34303.6 hPa WSW 33.6 km/h 51.8 km/h 95 % 38.1 mm
02:32 -8.7 °C -9.2 °C 34303.6 hPa SW 10.3 km/h 49.2 km/h 95 % 25.4 mm
02:42 -9.2 °C -9.8 °C 34327.3 hPa NNW 7.7 km/h 67.3 km/h 93 % 25.4 mm
02:47 -9.3 °C -9.9 °C 34327.3 hPa North 5.1 km/h 67.3 km/h 93 % 33.02 mm
02:52 -9.4 °C -10 °C 34327.3 hPa NNW 5.1 km/h 67.3 km/h 93 % 33.02 mm
02:57 -9.5 °C -10.1 °C 34327.3 hPa WNW 10.3 km/h 23.3 km/h 93 % 25.4 mm
03:02 -9.6 °C -10.2 °C 34327.3 hPa NNW 7.7 km/h 23.3 km/h 93 % 25.4 mm
03:12 -9.6 °C -10.2 °C 34327.3 hPa West 2.6 km/h 25.9 km/h 93 % 25.4 mm
03:17 -9.7 °C -10.3 °C 34327.3 hPa North 2.6 km/h 20.8 km/h 93 % 20.32 mm
03:22 -9.7 °C -10.2 °C 34327.3 hPa Calm   20.8 km/h 94 % 20.32 mm
03:32 -9.7 °C -10.3 °C 34327.3 hPa Calm   10.3 km/h 94 % 25.4 mm
03:37 -9.8 °C -10.3 °C 34327.3 hPa Calm   7.7 km/h 94 % 12.7 mm
03:42 -9.8 °C -10.3 °C 34327.3 hPa Calm   7.7 km/h 94 % 12.7 mm
03:52 -9.8 °C -10.3 °C 34337.4 hPa NW 5.1 km/h 5.1 km/h 94 % 12.7 mm
03:57 -9.8 °C -10.3 °C 34347.6 hPa West 7.7 km/h 7.7 km/h 94 % 12.7 mm
04:02 -9.8 °C -10.3 °C 34347.6 hPa NW 2.6 km/h 5.1 km/h 94 % 12.7 mm
04:07 -9.8 °C -10.3 °C 34347.6 hPa WNW 5.1 km/h 15.6 km/h 94 % 12.7 mm
04:12 -9.8 °C -10.4 °C 34347.6 hPa WNW 5.1 km/h 15.6 km/h 94 % 12.7 mm
04:17 -9.9 °C -10.4 °C 34347.6 hPa NW 10.3 km/h 15.6 km/h 94 % 12.7 mm
04:22 -9.9 °C -10.4 °C 34347.6 hPa WNW 2.6 km/h 15.6 km/h 94 % 12.7 mm
04:32 -9.9 °C -10.5 °C 34347.6 hPa West 2.6 km/h 18.2 km/h 94 % 12.7 mm
04:37 -10 °C -10.6 °C 34347.6 hPa WNW 12.9 km/h 15.6 km/h 94 % 7.62 mm
04:42 -10 °C -10.6 °C 34347.6 hPa West 7.7 km/h 15.6 km/h 94 % 7.62 mm
04:47 -10 °C -10.6 °C 34337.4 hPa Calm   12.9 km/h 94 % 7.62 mm
04:52 -10.1 °C -10.6 °C 34337.4 hPa Calm   12.9 km/h 94 % 7.62 mm
04:57 -10.1 °C -10.6 °C 34337.4 hPa Calm   12.9 km/h 94 % 7.62 mm
05:02 -10.1 °C -10.6 °C 34337.4 hPa Calm   12.9 km/h 94 % 7.62 mm
05:12 -10.2 °C -10.7 °C 34337.4 hPa Calm   7.7 km/h 94 % 7.62 mm
05:22 -10.2 °C -10.7 °C 34347.6 hPa Calm   7.7 km/h 94 % 0 mm
05:32 -10.2 °C -10.7 °C 34347.6 hPa Calm   5.1 km/h 95 % 0 mm
05:42 -10.2 °C -10.6 °C 34347.6 hPa Calm   2.6 km/h 95 % 0 mm
05:47 -10.2 °C -10.6 °C 34347.6 hPa Calm   2.6 km/h 95 % 0 mm
05:57 -10.1 °C -10.6 °C 34347.6 hPa Calm   2.6 km/h 95 % 0 mm
06:02 -10.1 °C -10.6 °C 34347.6 hPa WSW 2.6 km/h 2.6 km/h 95 % 0 mm
06:12 -10.1 °C -10.6 °C 34347.6 hPa Calm   2.6 km/h 95 % 0 mm
06:17 -10.1 °C -10.6 °C 34347.6 hPa Calm   2.6 km/h 95 % 0 mm
06:22 -10.1 °C -10.5 °C 34361.1 hPa Calm   2.6 km/h 95 % 0 mm
06:27 -10.1 °C -10.5 °C 34361.1 hPa Calm   2.6 km/h 95 % 0 mm
06:37 -10 °C -10.4 °C 34361.1 hPa Calm   2.6 km/h 95 % 0 mm
06:42 -10 °C -10.4 °C 34361.1 hPa Calm   2.6 km/h 95 % 7.62 mm
06:52 -10 °C -10.4 °C 34361.1 hPa Calm     95 % 12.7 mm
06:57 -10 °C -10.4 °C 34361.1 hPa Calm     95 % 12.7 mm
07:02 -10 °C -10.4 °C 34361.1 hPa Calm     95 % 25.4 mm
07:12 -10 °C -10.4 °C 34361.1 hPa Calm     95 % 25.4 mm
07:22 -10.1 °C -10.5 °C 34361.1 hPa WNW 2.6 km/h 5.1 km/h 95 % 38.1 mm
07:32 -10.2 °C -10.6 °C 34371.3 hPa Calm   23.3 km/h 95 % 45.72 mm
07:42 -10.1 °C -10.4 °C 34371.3 hPa North 2.6 km/h 15.6 km/h 96 % 45.72 mm
07:52 -10.1 °C -10.4 °C 34371.3 hPa Calm   12.9 km/h 96 % 45.72 mm
08:02 -10.1 °C -10.4 °C 34361.1 hPa NW 5.1 km/h 7.7 km/h 96 % 38.1 mm
08:07 -9.9 °C -10.4 °C 34361.1 hPa WNW 7.7 km/h 10.3 km/h 95 % 33.02 mm
08:12 -9.9 °C -10.4 °C 34361.1 hPa WNW 12.9 km/h 12.9 km/h 95 % 33.02 mm
08:17 -9.9 °C -10.3 °C 34361.1 hPa WNW 7.7 km/h 12.9 km/h 95 % 12.7 mm
08:22 -9.9 °C -10.4 °C 34361.1 hPa West 2.6 km/h 12.9 km/h 95 % 12.7 mm
08:32 -9.7 °C -10.3 °C 34371.3 hPa NW 5.1 km/h 12.9 km/h 94 % 12.7 mm
08:37 -9.7 °C -10.3 °C 34371.3 hPa West 10.3 km/h 15.6 km/h 93 % 7.62 mm
08:42 -9.7 °C -10.3 °C 34371.3 hPa Calm   15.6 km/h 93 % 7.62 mm
08:47 -9.6 °C -10.3 °C 34371.3 hPa NNW 2.6 km/h 15.6 km/h 92 % 0 mm
08:52 -9.5 °C -10.2 °C 34371.3 hPa North 15.6 km/h 15.6 km/h 92 % 0 mm
09:02 -9.3 °C -10.2 °C 34384.8 hPa WNW 12.9 km/h 18.2 km/h 90 % 0 mm
09:07 -9.4 °C -10.3 °C 34384.8 hPa Calm   28.5 km/h 90 % 0 mm
09:12 -9.5 °C -10.5 °C 34384.8 hPa WNW 12.9 km/h 28.5 km/h 89 % 0 mm
09:17 -9.5 °C -10.6 °C 34384.8 hPa West 7.7 km/h 20.8 km/h 88 % 0 mm
09:22 -9.3 °C -10.4 °C 34384.8 hPa NNW 7.7 km/h 20.8 km/h 88 % 0 mm
09:32 -9.2 °C -10.5 °C 34384.8 hPa WNW 20.8 km/h 20.8 km/h 86 % 0 mm
09:37 -9.1 °C -10.6 °C 34384.8 hPa NW 18.2 km/h 25.9 km/h 84 % 0 mm
09:42 -9.3 °C -10.8 °C 34384.8 hPa NW 12.9 km/h 25.9 km/h 84 % 0 mm
09:52 -9.2 °C -10.5 °C 34395 hPa North 7.7 km/h 33.6 km/h 86 % 0 mm
10:02 -9 °C -10.4 °C 34395 hPa West 10.3 km/h 28.5 km/h 85 % 0 mm
10:12 -9.2 °C -10.4 °C 34395 hPa WNW 5.1 km/h 33.6 km/h 86 % 0 mm
10:17 -9 °C -10.3 °C 34395 hPa NW 20.8 km/h 28.5 km/h 86 % 0 mm
10:22 -9.2 °C -10.8 °C 34405.1 hPa NW 28.5 km/h 28.5 km/h 83 % 0 mm
10:32 -9.1 °C -10.8 °C 34405.1 hPa NW 5.1 km/h 41.4 km/h 82 % 0 mm
10:37 -8.9 °C -10.4 °C 34395 hPa WNW 20.8 km/h 33.6 km/h 84 % 0 mm
10:42 -8.8 °C -10.5 °C 34395 hPa West 12.9 km/h 33.6 km/h 82 % 0 mm
10:52 -8.9 °C -10.6 °C 34395 hPa WSW 15.6 km/h 25.9 km/h 82 % 0 mm
10:57 -8.9 °C -10.6 °C 34395 hPa WSW 15.6 km/h 33.6 km/h 83 % 0 mm
11:02 -8.8 °C -10.7 °C 34395 hPa WNW 28.5 km/h 33.6 km/h 81 % 0 mm
11:12 -8.7 °C -10.7 °C 34405.1 hPa WSW 12.9 km/h 31.1 km/h 79 % 0 mm
11:22 -8.8 °C -10.6 °C 34405.1 hPa West 18.2 km/h 38.8 km/h 81 % 0 mm
11:32 -8.8 °C -10.8 °C 34418.7 hPa WSW 38.8 km/h 38.8 km/h 79 % 0 mm
11:42 -8.9 °C -10.9 °C 34418.7 hPa WNW 12.9 km/h 38.8 km/h 79 % 0 mm
11:47 -8.8 °C -11.1 °C 34418.7 hPa West 25.9 km/h 41.4 km/h 77 % 0 mm
11:52 -8.8 °C -11 °C 34418.7 hPa NNW 10.3 km/h 41.4 km/h 77 % 0 mm
12:02 -8.7 °C -10.8 °C 34418.7 hPa WNW 18.2 km/h 44.1 km/h 78 % 0 mm
12:07 -8.8 °C -11.1 °C 34418.7 hPa WNW 28.5 km/h 44.1 km/h 77 % 0 mm
12:12 -8.9 °C -10.9 °C 34428.8 hPa WNW 31.1 km/h 44.1 km/h 79 % 0 mm
12:17 -9.1 °C -11 °C 34428.8 hPa West 20.8 km/h 38.8 km/h 80 % 0 mm
12:27 -9.5 °C -11.3 °C 34428.8 hPa WSW 15.6 km/h 38.8 km/h 81 % 0 mm
12:32 -9.4 °C -11.1 °C 34428.8 hPa West 15.6 km/h 38.8 km/h 82 % 0 mm
12:37 -9.3 °C -11.1 °C 34428.8 hPa SW 12.9 km/h 38.8 km/h 81 % 0 mm
12:42 -9.3 °C -11.1 °C 34428.8 hPa WNW 12.9 km/h 36.2 km/h 81 % 0 mm
12:52 -9.3 °C -11.1 °C 34428.8 hPa West 25.9 km/h 36.2 km/h 81 % 0 mm
12:57 -9.3 °C -11.1 °C 34428.8 hPa WNW 10.3 km/h 36.2 km/h 81 % 0 mm
13:02 -9.2 °C -10.8 °C 34428.8 hPa WSW 10.3 km/h 36.2 km/h 83 % 0 mm
13:12 -9.1 °C -10.9 °C 34428.8 hPa West 12.9 km/h 36.2 km/h 81 % 0 mm
13:17 -9.1 °C -10.9 °C 34428.8 hPa West 7.7 km/h 31.1 km/h 81 % 0 mm
13:27 -8.7 °C -10.7 °C 34428.8 hPa SW 20.8 km/h 33.6 km/h 79 % 0 mm
13:32 -8.7 °C -10.8 °C 34428.8 hPa SSW 12.9 km/h 33.6 km/h 78 % 0 mm
13:37 -8.7 °C -10.8 °C 34428.8 hPa WSW 18.2 km/h 33.6 km/h 78 % 0 mm
13:42 -8.6 °C -10.7 °C 34428.8 hPa WSW 20.8 km/h 33.6 km/h 78 % 0 mm
13:52 -8.6 °C -10.8 °C 34428.8 hPa WSW 18.2 km/h 38.8 km/h 77 % 0 mm
13:57 -8.5 °C -10.7 °C 34428.8 hPa WNW 10.3 km/h 33.6 km/h 78 % 0 mm
14:02 -8.4 °C -10.7 °C 34428.8 hPa West 20.8 km/h 33.6 km/h 77 % 0 mm
14:07 -8.5 °C -10.8 °C 34428.8 hPa WSW 18.2 km/h 33.6 km/h 77 % 0 mm
14:12 -8.4 °C -10.6 °C 34428.8 hPa WSW 15.6 km/h 33.6 km/h 78 % 0 mm
14:17 -8.6 °C -10.8 °C 34428.8 hPa West 41.4 km/h 41.4 km/h 77 % 0 mm
14:22 -8.5 °C -10.7 °C 34428.8 hPa West 12.9 km/h 36.2 km/h 78 % 0 mm
14:32 -8.2 °C -10.7 °C 34428.8 hPa West 10.3 km/h 41.4 km/h 75 % 0 mm
14:42 -8 °C -10.5 °C 34418.7 hPa West 12.9 km/h 33.6 km/h 75 % 0 mm
14:47 -8.1 °C -10.7 °C 34418.7 hPa WSW 23.3 km/h 44.1 km/h 74 % 0 mm
14:57 -7.9 °C -10.6 °C 34418.7 hPa West 23.3 km/h 41.4 km/h 74 % 0 mm
15:02 -7.8 °C -10.6 °C 34418.7 hPa WNW 18.2 km/h 41.4 km/h 73 % 0 mm
15:12 -7.8 °C -10.6 °C 34418.7 hPa West 18.2 km/h 44.1 km/h 73 % 0 mm
15:17 -7.8 °C -10.6 °C 34418.7 hPa WSW 15.6 km/h 44.1 km/h 73 % 0 mm
15:22 -7.8 °C -10.4 °C 34418.7 hPa West 25.9 km/h 44.1 km/h 74 % 0 mm
15:32 -7.4 °C -10.4 °C 34418.7 hPa West 25.9 km/h 44.1 km/h 71 % 0 mm
15:42 -7.9 °C -10.6 °C 34418.7 hPa WSW 23.3 km/h 44.1 km/h 73 % 0 mm
15:52 -8 °C -10.5 °C 34418.7 hPa West 12.9 km/h 44.1 km/h 75 % 0 mm
16:02 -7.9 °C -10.7 °C 34418.7 hPa West 20.8 km/h 41.4 km/h 73 % 0 mm
16:12 -7.9 °C -10.7 °C 34428.8 hPa West 12.9 km/h 41.4 km/h 73 % 0 mm
16:17 -7.9 °C -10.6 °C 34418.7 hPa WNW 31.1 km/h 44.1 km/h 74 % 0 mm
16:22 -8.1 °C -10.6 °C 34428.8 hPa WSW 25.9 km/h 44.1 km/h 75 % 0 mm
16:32 -8.3 °C -10.5 °C 34428.8 hPa West 15.6 km/h 44.1 km/h 78 % 0 mm
16:37 -8.4 °C -10.4 °C 34428.8 hPa WNW 23.3 km/h 41.4 km/h 79 % 0 mm
16:42 -8.5 °C -10.4 °C 34428.8 hPa West 15.6 km/h 41.4 km/h 80 % 0 mm
16:52 -8.6 °C -10.3 °C 34428.8 hPa West 18.2 km/h 33.6 km/h 82 % 0 mm
16:57 -8.5 °C -10.3 °C 34428.8 hPa WSW 18.2 km/h 36.2 km/h 81 % 0 mm
17:02 -8.4 °C -10.4 °C 34428.8 hPa West 18.2 km/h 36.2 km/h 80 % 0 mm
17:12 -8.2 °C -10.3 °C 34418.7 hPa WSW 12.9 km/h 36.2 km/h 79 % 0 mm
17:17 -8.1 °C -10.4 °C 34418.7 hPa West 18.2 km/h 41.4 km/h 77 % 0 mm
17:22 -8 °C -10.3 °C 34418.7 hPa WSW 33.6 km/h 41.4 km/h 77 % 0 mm
17:27 -7.9 °C -10.3 °C 34418.7 hPa West 18.2 km/h 41.4 km/h 76 % 0 mm
17:32 -7.9 °C -10.3 °C 34418.7 hPa WNW 36.2 km/h 41.4 km/h 76 % 0 mm
17:37 -7.9 °C -10.2 °C 34418.7 hPa West 23.3 km/h 44.1 km/h 77 % 0 mm
17:42 -7.9 °C -10.3 °C 34418.7 hPa NW 28.5 km/h 44.1 km/h 76 % 0 mm
17:47 -7.9 °C -10.3 °C 34418.7 hPa SW 15.6 km/h 44.1 km/h 76 % 0 mm
17:52 -7.9 °C -10.2 °C 34418.7 hPa West 20.8 km/h 44.1 km/h 77 % 0 mm
17:57 -8 °C -10.3 °C 34418.7 hPa West 10.3 km/h 38.8 km/h 77 % 0 mm
18:02 -7.9 °C -10.2 °C 34418.7 hPa West 20.8 km/h 38.8 km/h 77 % 0 mm
18:12 -8 °C -10.2 °C 34418.7 hPa WSW 28.5 km/h 38.8 km/h 78 % 0 mm
18:17 -7.9 °C -10.1 °C 34418.7 hPa WNW 25.9 km/h 31.1 km/h 78 % 0 mm
18:22 -7.9 °C -10.1 °C 34405.1 hPa WSW 25.9 km/h 31.1 km/h 78 % 0 mm
18:27 -7.9 °C -9.9 °C 34418.7 hPa NW 5.1 km/h 31.1 km/h 79 % 0 mm
18:32 -7.9 °C -9.9 °C 34418.7 hPa West 20.8 km/h 41.4 km/h 79 % 0 mm
18:42 -7.9 °C -9.8 °C 34418.7 hPa West 15.6 km/h 41.4 km/h 81 % 0 mm
18:47 -8 °C -9.8 °C 34418.7 hPa WSW 20.8 km/h 41.4 km/h 81 % 0 mm
18:57 -8.1 °C -9.9 °C 34418.7 hPa WNW 20.8 km/h 41.4 km/h 81 % 0 mm
19:02 -8.1 °C -9.8 °C 34418.7 hPa WNW 2.6 km/h 41.4 km/h 82 % 0 mm
19:12 -8.1 °C -9.9 °C 34418.7 hPa WNW 10.3 km/h 33.6 km/h 81 % 0 mm
19:17 -8.1 °C -9.9 °C 34418.7 hPa West 15.6 km/h 38.8 km/h 81 % 0 mm
19:22 -8 °C -9.8 °C 34418.7 hPa WNW 28.5 km/h 38.8 km/h 81 % 0 mm
19:27 -8 °C -9.7 °C 34428.8 hPa WNW 15.6 km/h 44.1 km/h 82 % 0 mm
19:32 -8 °C -9.7 °C 34418.7 hPa West 18.2 km/h 44.1 km/h 82 % 0 mm
19:42 -8 °C -9.8 °C 34428.8 hPa West 12.9 km/h 36.2 km/h 81 % 0 mm
19:52 -7.9 °C -9.8 °C 34428.8 hPa WNW 10.3 km/h 36.2 km/h 81 % 0 mm
19:57 -8 °C -9.8 °C 34428.8 hPa West 18.2 km/h 31.1 km/h 81 % 0 mm
20:02 -8.2 °C -9.9 °C 34428.8 hPa WNW 18.2 km/h 31.1 km/h 82 % 0 mm
20:12 -8.1 °C -9.9 °C 34428.8 hPa WNW 10.3 km/h 41.4 km/h 81 % 0 mm
20:17 -8.1 °C -9.9 °C 34428.8 hPa WNW 15.6 km/h 44.1 km/h 81 % 0 mm
20:22 -8.2 °C -10 °C 34428.8 hPa WNW 15.6 km/h 44.1 km/h 81 % 0 mm
20:32 -8.2 °C -9.9 °C 34428.8 hPa West 10.3 km/h 44.1 km/h 82 % 0 mm
20:37 -8.2 °C -9.8 °C 34428.8 hPa WSW 12.9 km/h 36.2 km/h 83 % 0 mm
20:42 -8.2 °C -9.8 °C 34428.8 hPa WSW 15.6 km/h 36.2 km/h 83 % 0 mm
20:47 -8.2 °C -9.8 °C 34428.8 hPa WSW 15.6 km/h 33.6 km/h 83 % 0 mm
20:52 -8.3 °C -9.9 °C 34428.8 hPa WNW 18.2 km/h 33.6 km/h 83 % 0 mm
20:57 -8.3 °C -9.8 °C 34442.4 hPa West 20.8 km/h 38.8 km/h 84 % 0 mm
21:02 -8.3 °C -9.9 °C 34442.4 hPa NW 12.9 km/h 38.8 km/h 83 % 0 mm
21:12 -8.3 °C -9.8 °C 34428.8 hPa West 15.6 km/h 38.8 km/h 84 % 0 mm
21:17 -8.3 °C -9.8 °C 34428.8 hPa West 10.3 km/h 36.2 km/h 84 % 0 mm
21:22 -8.4 °C -9.9 °C 34442.4 hPa WNW 18.2 km/h 36.2 km/h 84 % 0 mm
21:32 -8.4 °C -9.9 °C 34442.4 hPa WNW 23.3 km/h 44.1 km/h 84 % 0 mm
21:42 -8.4 °C -9.9 °C 34442.4 hPa WNW 33.6 km/h 38.8 km/h 84 % 0 mm
21:47 -8.4 °C -9.9 °C 34442.4 hPa WNW 23.3 km/h 44.1 km/h 84 % 0 mm
21:52 -8.4 °C -9.9 °C 34442.4 hPa WSW 10.3 km/h 44.1 km/h 84 % 0 mm
21:57 -8.4 °C -9.9 °C 34452.6 hPa WNW 15.6 km/h 41.4 km/h 84 % 0 mm
22:07 -8.4 °C -9.9 °C 34452.6 hPa WNW 15.6 km/h 41.4 km/h 84 % 0 mm
22:12 -8.4 °C -10.1 °C 34452.6 hPa WNW 15.6 km/h 41.4 km/h 83 % 0 mm
22:17 -8.4 °C -10 °C 34452.6 hPa West 15.6 km/h 51.8 km/h 83 % 0 mm
22:22 -8.4 °C -10.2 °C 34452.6 hPa NW 23.3 km/h 51.8 km/h 82 % 0 mm
22:32 -8.4 °C -10.2 °C 34462.7 hPa WSW 23.3 km/h 46.7 km/h 82 % 0 mm
22:37 -8.5 °C -10.2 °C 34462.7 hPa WNW 15.6 km/h 46.7 km/h 82 % 0 mm
22:42 -8.5 °C -10.2 °C 34462.7 hPa NNW 23.3 km/h 46.7 km/h 82 % 0 mm
22:47 -8.5 °C -10.2 °C 34462.7 hPa NNE 23.3 km/h 44.1 km/h 82 % 0 mm
22:52 -8.5 °C -10.2 °C 34462.7 hPa WNW 18.2 km/h 44.1 km/h 82 % 0 mm
23:02 -8.5 °C -10.3 °C 34476.3 hPa NW 15.6 km/h 38.8 km/h 81 % 0 mm
23:12 -8.6 °C -10.3 °C 34486.4 hPa NW 12.9 km/h 38.8 km/h 82 % 0 mm
23:17 -8.7 °C -10.3 °C 34486.4 hPa West 10.3 km/h 44.1 km/h 83 % 0 mm
23:22 -8.8 °C -10.3 °C 34486.4 hPa North 25.9 km/h 44.1 km/h 84 % 0 mm
23:32 -8.9 °C -10.3 °C 34486.4 hPa WNW 10.3 km/h 38.8 km/h 85 % 0 mm
23:42 -8.9 °C -10.3 °C 34476.3 hPa WNW 12.9 km/h 25.9 km/h 85 % 0 mm
23:47 -8.9 °C -10.3 °C 34486.4 hPa WNW 15.6 km/h 23.3 km/h 85 % 0 mm
23:52 -8.9 °C -10.3 °C 34486.4 hPa West 20.8 km/h 23.3 km/h 85 % 0 mm
23:57 -8.9 °C -10.2 °C 34486.4 hPa West 25.9 km/h 31.1 km/h 86 % 0 mm
Meteo18
Compliments of Weather Underground - 4 mb

Script developed by  Jim McMurry - jmcmurry@mwt.net Adapted for the template by  Wim van der Kuil - Leuven-Template.eu

You find our weather info also at:

European Weather Network

Weather Underground

Equipment we use:

Weather-station
Davis Vue

Weather-program
Meteobridge

Weather-server
Raspberry PI 2 B+

Provider
1 and 1

Davis Vue

Meteobridge

Raspberry PI 2 B+

1 and 1